FW2726 Weather Reports


Display with metric or nautical units.
time (UTC)temp
F
wind
direction
speed
MPH
gust
MPH
rain 1hr
in
rain 24hr
in
rain mn
in
humidity
%
barometer
mb
20260901023105 57 278 2.0 4.0 0.00 1.19 0.60 80 1010.2
20260901021610 59 279 2.0 4.0 0.00 1.19 0.60 77 1009.9
20260901020129 60 319 1.0 3.0 0.00 1.19 0.60 76 1009.8
20260901014621 62 319 1.0 4.0 0.00 1.22 0.60 72 1009.7
20260901013118 64 329 2.0 3.0 0.00 1.22 0.60 69 1009.5
20260901011608 65 329 2.0 5.0 0.00 1.22 0.60 66 1009.5
20260901010109 67 359 4.0 11.0 0.00 1.22 0.60 62 1009.2
20260901004607 68 354 7.0 14.0 0.00 1.23 0.60 61 1009.1
20260901003105 68 14 6.0 15.0 0.00 1.23 0.60 61 1008.9
20260901001612 68 328 5.0 10.0 0.00 1.23 0.60 62 1008.8
20260901000108 68 310 9.0 16.0 0.00 1.23 0.60 62 1008.8
20260831234608 68 343 11.0 18.0 0.00 1.23 0.60 60 1008.8
20260831233105 68 8 10.0 17.0 0.00 1.23 0.60 63 1008.7
20260831231605 68 4 10.0 16.0 0.00 1.23 0.60 64 1008.6
20260831230108 68 4 10.0 17.0 0.00 1.23 0.60 65 1008.5
20260831224607 68 336 11.0 18.0 0.00 1.23 0.60 65 1008.3
20260831223109 68 354 11.0 20.0 0.00 1.23 0.60 66 1008.2
20260831221609 68 4 10.0 23.0 0.00 1.23 0.60 67 1008.2
20260831220135 67 335 13.0 22.0 0.00 1.23 0.60 68 1008.1
20260831214606 66 317 16.0 25.0 0.00 1.24 0.60 70 1008.1
20260831213108 65 4 14.0 19.0 0.00 1.24 0.60 73 1008.1
20260831211605 64 342 14.0 21.0 0.00 1.24 0.60 75 1008.2
20260831210106 63 339 15.0 23.0 0.00 1.24 0.60 77 1008.1
20260831204605 62 23 15.0 24.0 0.00 1.25 0.60 78 1008.2
20260831203135 62 346 13.0 22.0 0.00 1.25 0.60 79 1008.0
20260831201610 63 337 12.0 23.0 0.00 1.25 0.60 80 1007.8
20260831200107 63 344 13.0 21.0 0.00 1.25 0.60 80 1007.7
20260831194611 63 336 13.0 23.0 0.00 1.25 0.60 81 1007.4
20260831193107 63 349 14.0 23.0 0.00 1.25 0.60 82 1007.3
20260831191606 62 343 13.0 22.0 0.00 1.25 0.60 85 1007.2
20260831190140 62 326 13.0 20.0 0.00 1.25 0.60 85 1006.9
20260831184610 61 332 14.0 21.0 0.00 1.25 0.60 89 1006.9
20260831183115 60 321 12.0 21.0 0.00 1.25 0.60 90 1006.7
20260831181606 60 324 14.0 21.0 0.00 1.25 0.60 91 1006.5
20260831180108 60 313 12.0 23.0 0.00 1.25 0.60 93 1006.3
20260831174605 59 322 9.0 20.0 0.00 1.25 0.60 94 1006.1
20260831173111 59 338 12.0 21.0 0.00 1.25 0.60 95 1005.9
20260831171608 59 330 13.0 21.0 0.00 1.25 0.60 95 1005.7
20260831170112 58 10 11.0 23.0 0.00 1.25 0.60 95 1005.4
20260831164607 58 318 11.0 21.0 0.00 1.25 0.60 96 1005.1
20260831163108 58 320 9.0 19.0 0.00 1.25 0.60 96 1004.8
20260831161608 57 329 10.0 17.0 0.00 1.25 0.60 96 1004.7
20260831160135 57 343 12.0 19.0 0.00 1.25 0.60 96 1004.4
20260831154631 57 339 11.0 19.0 0.00 1.27 0.60 96 1004.2
20260831153133 57 4 10.0 19.0 0.00 1.27 0.60 96 1004.0
20260831151607 57 341 13.0 19.0 0.00 1.27 0.60 97 1003.9
20260831150109 56 335 12.0 21.0 0.00 1.27 0.60 97 1003.6
20260831144608 56 332 14.0 23.0 0.00 1.27 0.60 97 1003.2
20260831143115 56 16 13.0 23.0 0.01 1.27 0.60 97 1002.7
20260831141606 56 341 14.0 22.0 0.01 1.27 0.60 97 1002.5
20260831140109 56 23 17.0 25.0 0.02 1.27 0.60 97 1002.1
20260831134611 56 23 16.0 28.0 0.03 1.27 0.60 97 1002.0
20260831133106 56 359 17.0 31.0 0.03 1.26 0.58 97 1001.2
20260831131606 56 4 17.0 31.0 0.04 1.26 0.58 97 1000.9
20260831130141 56 349 18.0 29.0 0.04 1.25 0.58 97 1000.6
20260831124604 56 354 15.0 30.0 0.04 1.24 0.57 97 1000.3
20260831123109 56 354 19.0 32.0 0.03 1.23 0.56 97 1000.0
20260831121607 56 354 18.0 29.0 0.03 1.22 0.55 97 999.6
20260831120147 57 22 18.0 30.0 0.04 1.21 0.54 97 999.5
20260831114609 57 14 17.0 28.0 0.03 1.21 0.52 97 999.2
20260831113109 57 10 17.0 26.0 0.04 1.21 0.52 97 999.1
20260831111606 57 332 16.0 29.0 0.04 1.20 0.52 97 999.0
20260831110112 57 349 15.0 27.0 0.04 1.17 0.50 97 998.8
20260831104607 57 4 15.0 26.0 0.06 1.17 0.50 97 998.6
20260831103106 57 21 15.0 24.0 0.08 1.16 0.49 97 998.5
20260831101624 57 341 15.0 26.0 0.10 1.16 0.48 97 998.4
20260831100108 57 17 15.0 26.0 0.10 1.14 0.46 97 998.5
20260831094610 57 334 13.0 30.0 0.10 1.12 0.44 97 998.4
20260831093115 57 4 15.0 22.0 0.08 1.09 0.41 97 998.4
20260831091606 57 344 14.0 25.0 0.05 1.05 0.38 97 998.3
20260831090124 57 12 15.0 26.0 0.04 1.04 0.36 97 998.2
20260831084606 56 346 14.0 26.0 0.02 1.03 0.34 97 998.3
20260831083108 56 354 12.0 20.0 0.01 1.02 0.33 97 998.3
20260831081611 56 359 13.0 21.0 0.01 1.02 0.33 97 998.5
20260831080111 56 320 12.0 21.0 0.00 1.01 0.32 97 998.7
20260831074610 56 18 12.0 19.0 0.04 1.16 0.32 97 999.0
20260831073125 56 4 13.0 23.0 0.09 1.16 0.32 97 999.1
20260831071609 57 343 11.0 20.0 0.17 1.16 0.32 97 999.1
20260831070139 54 12 9.0 15.0 0.31 1.16 0.32 97 999.6
20260831064608 52 302 6.0 11.0 0.38 1.13 0.28 96 999.9
20260831063112 52 292 4.0 14.0 0.39 1.08 0.23 96 1000.6
20260831061611 52 262 10.0 17.0 0.42 1.00 0.15 96 1001.0
20260831060113 52 278 9.0 17.0 0.36 0.86 0.01 96 1001.5
20260831054615 53 273 10.0 16.0 0.28 0.75 0.75 96 1001.7
20260831053109 53 258 11.0 18.0 0.24 0.69 0.69 95 1001.8
20260831051626 53 258 12.0 22.0 0.15 0.58 0.58 95 1002.2
20260831050112 53 262 10.0 20.0 0.11 0.50 0.50 95 1002.6
20260831044609 53 286 8.0 16.0 0.10 0.47 0.47 94 1002.7
20260831043105 53 281 7.0 15.0 0.09 0.45 0.45 94 1002.9
20260831041616 53 287 9.0 15.0 0.07 0.43 0.43 93 1003.3
20260831040107 53 289 9.0 18.0 0.03 0.38 0.38 92 1003.4
20260831034606 54 290 11.0 18.0 0.03 0.37 0.37 92 1003.4
20260831033108 54 305 9.0 15.0 0.03 0.36 0.36 92 1004.1
20260831031608 55 302 10.0 18.0 0.06 0.36 0.36 93 1004.4
20260831030107 56 297 8.0 14.0 0.09 0.35 0.35 93 1004.6
20260831024619 57 322 7.0 11.0 0.10 0.34 0.34 93 1004.6